This is the latest recevied weather packets stored in our database for station/object N3TJJ-2. If no packets are shown the sender has not sent any weather packets the latest 10 day(s).
| Time | Temp. | Humidity | Pressure | Rain* | Wind** | Luminosity | Snow |
|---|---|---|---|---|---|---|---|
| 1777651192 | 13.89° C | 55% | 1014.8 hPa | 0 mm | - | - | - |
| 1777650796 | 13.33° C | 56% | 1014.9 hPa | 0 mm | - | - | - |
| 1777650447 | 12.78° C | 54% | 1014.9 hPa | 0 mm | - | - | - |
| 1777650154 | 12.78° C | 52% | 1015.1 hPa | 0 mm | - | - | - |
| 1777649745 | 13.33° C | 54% | 1015.1 hPa | 0 mm | - | - | - |
| 1777649357 | 13.33° C | 52% | 1015.3 hPa | 0 mm | - | - | - |
| 1777648992 | 12.78° C | 55% | 1015.4 hPa | 0 mm | - | - | - |
| 1777648284 | 12.78° C | 52% | 1015.5 hPa | 0 mm | - | - | - |
| 1777647911 | 12.22° C | 52% | 1015.5 hPa | 0 mm | - | - | - |
| 1777647559 | 12.22° C | 53% | 1015.6 hPa | 0 mm | - | - | - |
| 1777647191 | 12.22° C | 55% | 1015.7 hPa | 0 mm | - | - | - |
| 1777646831 | 12.22° C | 56% | 1015.7 hPa | 0 mm | - | - | - |
| 1777646472 | 11.67° C | 55% | 1015.6 hPa | 0 mm | - | - | - |
| 1777646117 | 11.67° C | 55% | 1015.6 hPa | 0 mm | - | - | - |
| 1777645752 | 11.11° C | 53% | 1015.5 hPa | 0 mm | - | - | - |
| 1777645404 | 11.11° C | 56% | 1015.5 hPa | 0 mm | - | - | - |
| 1777645032 | 11.11° C | 57% | 1015.6 hPa | 0 mm | - | - | - |
| 1777644687 | 11.11° C | 60% | 1015.6 hPa | 0 mm | - | - | - |
| 1777644318 | 11.11° C | 59% | 1015.7 hPa | 0 mm | - | - | - |
| 1777643952 | 11.11° C | 60% | 1015.7 hPa | 0 mm | - | - | - |
| 1777643600 | 10.56° C | 64% | 1015.8 hPa | 0 mm | - | - | - |
| 1777643231 | 10.56° C | 62% | 1015.8 hPa | 0 mm | - | - | - |
| 1777642881 | 10.56° C | 63% | 1015.9 hPa | 0 mm | - | - | - |
| 1777642528 | 10.56° C | 63% | 1015.8 hPa | 0 mm | - | - | - |
| 1777642151 | 10° C | 66% | 1015.9 hPa | 0 mm | - | - | - |
* Rain latest hour (hover to see other rain measurements)
** Current wind speed in m/s (hover to see current wind gust speed)